940  
NZUS93 KARX 211810  
HRRWXR  
 
CURRENT HOURLY OBSERVATIONS ACROSS  
MUCH OF THE UPPER MISSISSIPPI VALLEY  
NATIONAL WEATHER SERVICE LA CROSSE WI  
100 PM CDT TUE OCT 21 2014  
 
   
..SOUTHEAST MINNESOTA
 
 
 
CITY SKY/WX TMP DP RH WIND PRES REMARKS  
ROCHESTER SUNNY 54 41 61 S7 30.20F  
ROCHESTER/MAYO FAIR 52 37 57 E6 30.20S  
WINONA SUNNY 54 41 62 SE6 30.22F  
AUSTIN SUNNY 55 41 58 SE8 30.17F  
ALBERT LEA SUNNY 57 41 54 S10 30.16F  
DODGE CENTER SUNNY 55 43 62 E10G16 30.18F  
PRESTON SUNNY 51 39 62 E3 30.20F  
OWATONNA SUNNY 57 41 54 SE8 30.17F  
FARIBAULT SUNNY 57 43 58 SE8 30.17F  

 
   
..ELSEWHERE IN MINNESOTA
 
 
 
CITY SKY/WX TMP DP RH WIND PRES REMARKS  
MINNEAPOLIS SUNNY 53 40 61 SE12 30.18F  
INTNL FALLS MOSUNNY 46 35 65 SE17 30.16F  
DULUTH CLOUDY 43 35 73 E13 30.22F  
RED WING SUNNY 54 37 54 E10 30.20S  
REDWOOD FALLS SUNNY 62 41 46 SE20G25 30.09F  
MANKATO SUNNY 59 39 47 SE15 30.15F  
WORTHINGTON SUNNY 66 39 37 SE12G17 30.09F  
FAIRMONT SUNNY 61 39 44 SE14 30.12F  

 
   
..SOUTHWEST WISCONSIN
 
 
 
CITY SKY/WX TMP DP RH WIND PRES REMARKS  
LA CROSSE SUNNY 54 37 52 E7 30.22F  
PRAIRIE DU CHI SUNNY 54 36 50 E9 30.21F  
BOSCOBEL SUNNY 55 37 50 NE7 30.23F  
LONE ROCK MOSUNNY 54 37 52 SE7 30.23F  
PLATTEVILLE MOSUNNY 53 37 55 NE7 30.22F  
FORT MC COY MOSUNNY 51 35 55 SE7 30.24F  
CAMP DOUGLAS PTSUNNY 48 37 66 E8 30.24F  
VIROQUA FAIR 53 36 53 E5 30.22S  
WIS DELLS CLOUDY 46 35 66 NE6 30.24F  

 
   
..ELSEWHERE IN WISCONSIN
 
 
 
CITY SKY/WX TMP DP RH WIND PRES REMARKS  
MILWAUKEE CLOUDY 48 39 71 N10 30.20F  
MADISON CLOUDY 48 37 65 N7 30.23F  
GREEN BAY SUNNY 49 35 58 NE12 30.24F  
EAU CLAIRE SUNNY 51 36 56 VRB3 30.22F  
BLACK RVR FLS FAIR 52 35 52 E6 30.23F  
MEDFORD CLOUDY 47 37 67 SE7 30.24S  
WAUSAU PTSUNNY 48 35 60 VRB3 30.23F  
WIS RAPIDS CLOUDY 47 35 63 VRB5 30.26F  
MARSHFIELD PTSUNNY 48 37 65 VRB6 30.24S  
RICE LAKE SUNNY 49 36 60 SE10 30.23F  

 
   
..NORTHEAST IOWA
 
 
 
CITY SKY/WX TMP DP RH WIND PRES REMARKS  
DECORAH SUNNY 54 39 58 VRB5 30.19F  
MASON CITY SUNNY 59 42 53 SE10 30.17F  
CHARLES CITY SUNNY 57 41 54 E8G15 30.18F  
OELWEIN SUNNY 55 39 54 E8 30.20F  

 
   
..ELSEWHERE IN IOWA
 
 
 
CITY SKY/WX TMP DP RH WIND PRES REMARKS  
DES MOINES SUNNY 63 43 48 E9 30.15F  
IOWA CITY SUNNY 58 42 55 E8 30.20F  
FORT DODGE SUNNY 63 45 51 S6 30.14F  

 
   
..NORTHERN ILLINOIS
 
 
 
CITY SKY/WX TMP DP RH WIND PRES REMARKS  
CHICAGO-OHARE CLOUDY 52 40 63 NE18 30.17S  
CHICAGO-MIDWAY CLOUDY 53 43 68 N15G22 30.17R  
MOLINE SUNNY 57 40 52 NE6 30.19S  
ROCKFORD PTSUNNY 54 38 54 N9 30.22S  
PEORIA SUNNY 59 39 47 N9 30.17F  

 
 
NOTE: "FAIR" INDICATES FEW OR NO CLOUDS BELOW 12,000 FEET WITH NO  
SIGNIFICANT WEATHER AND/OR OBSTRUCTIONS TO VISIBILITY. WIND  
SPEEDS ARE IN MILES-PER-HOUR.  
 
CLICK HERE TO GO TO PREVIOUS BULLETINS.

The Nexlab WI Page
The Nexlab IA Page
The Nexlab MN Page Main Text Page